{"data":{"norad_id":56458,"epoch":"2026-09-20T11:46:36.098976Z","epoch_age_seconds":112730,"freshness":"FRESH","line1":"1 56458U 23064L   26263.49069559  .00000328  00000+0  35312-4 0  9999","line2":"2 56458  70.0013  13.3626 0002890 271.0088  89.0740 14.98331701184421","mean_motion":14.98331701,"eccentricity":0.000289,"inclination_deg":70.0013,"raan_deg":13.3626,"arg_perigee_deg":271.0088,"mean_anomaly_deg":89.074,"bstar":3.5312e-5,"rev_number":18442,"period_min":96.106890019008,"perigee_km":570.04202652192,"apogee_km":574.05923497249,"semimajor_km":6950.1876307472,"source":"CELESTRAK","updated_at":"2026-09-21T09:00:33.442913Z"}}